FW3734 Weather Reports


time (UTC)temp
F
wind
direction
speed
knots
gust
knots
rain 1hr
in
rain 24hr
in
rain mn
in
humidity
%
barometer
mb
20260505011524 75 207 0.0 0.9 0.00 0.11 0.11 52 1002.2
20260505010018 75 235 0.0 1.7 0.00 0.11 0.11 52 1002.0
20260505004518 76 153 0.0 1.7 0.00 0.11 0.11 51 1001.7
20260505003024 77 213 0.0 0.9 0.00 0.11 0.11 51 1001.6
20260505001515 78 214 0.0 0.0 0.00 0.11 0.11 50 1001.6
20260505000016 78 201 0.0 4.3 0.00 0.11 0.11 50 1001.6
20260504234516 79 228 0.0 4.3 0.00 0.11 0.11 49 1001.4
20260504233016 79 234 0.0 7.8 0.00 0.11 0.11 49 1001.7
20260504231510 79 218 0.0 3.5 0.00 0.11 0.11 49 1001.7
20260504230008 78 204 0.0 0.9 0.00 0.11 0.11 57 1002.0
20260504224513 77 190 0.0 0.0 0.00 0.11 0.11 59 1002.3
20260504223002 77 245 0.0 3.5 0.00 0.11 0.11 57 1002.4
20260504221604 77 124 0.0 0.0 0.00 0.11 0.11 56 1002.4
20260504214556 77 193 0.0 4.3 0.00 0.11 0.11 56 1002.5
20260504213055 76 177 0.0 6.1 0.00 0.11 0.11 58 1002.5
20260504211631 75 200 0.0 2.6 0.00 0.11 0.11 62 1002.6
20260504210049 75 184 0.0 0.9 0.00 0.11 0.11 66 1002.8
20260504204542 73 202 0.0 3.5 0.00 0.11 0.11 69 1003.0
20260504203036 71 158 1.7 9.6 0.00 0.11 0.11 72 1003.2
20260504201532 69 158 0.0 5.2 0.00 0.11 0.11 80 1003.4
20260504200031 67 136 0.0 5.2 0.00 0.11 0.11 84 1003.3
20260504194528 66 136 0.0 0.0 0.01 0.11 0.11 87 1003.5
20260504193027 64 149 0.0 0.0 0.02 0.11 0.11 90 1003.8
20260504191527 62 142 2.6 9.6 0.08 0.11 0.11 89 1003.4
20260504190023 62 149 0.0 0.0 0.09 0.11 0.11 88 1004.7
20260504184535 62 192 0.0 0.0 0.07 0.09 0.09 86 1005.3
20260504183021 62 145 3.5 7.0 0.07 0.09 0.09 83 1004.2
20260504181517 63 124 0.0 0.0 0.01 0.03 0.03 80 1005.4
20260504180016 63 50 0.0 2.6 0.01 0.02 0.02 79 1005.6
20260504174516 62 221 0.0 0.0 0.02 0.02 0.02 81 1005.2
20260504173015 62 221 0.0 0.0 0.02 0.02 0.02 81 1005.2
20260504171514 63 199 0.0 0.9 0.02 0.02 0.02 78 1005.4
20260504081523 61 132 0.9 2.6 0.00 0.00 0.00 69 1008.1
20260504044546 67 208 0.0 6.1 0.00 0.00 0.00 55 1008.0
20260504043047 67 186 0.0 2.6 0.00 0.00 0.00 54 1008.5
20260504041542 68 184 0.0 6.1 0.00 0.00 0.00 53 1008.8
20260504040041 68 242 0.0 2.6 0.00 0.00 0.00 52 1008.7
20260504034540 68 168 0.0 1.7 0.00 0.00 0.00 52 1009.5
20260504033140 68 231 0.0 2.6 0.00 0.00 0.00 52 1009.5
20260504031552 68 261 0.0 2.6 0.00 0.00 0.00 51 1009.6
20260504030042 68 207 0.0 1.7 0.00 0.00 0.00 51 1009.4
20260504024539 68 212 0.0 0.0 0.00 0.00 0.00 50 1009.2
20260504023039 69 207 0.0 1.7 0.00 0.00 0.00 50 1009.2
20260504021538 69 207 0.0 0.0 0.00 0.00 0.00 50 1009.2
20260504020038 70 207 0.0 0.0 0.00 0.00 0.00 49 1009.0
20260504014541 70 207 0.0 0.0 0.00 0.00 0.00 47 1008.9
20260504013041 71 213 0.0 0.0 0.00 0.00 0.00 46 1008.8